Back to catalog

SHIYAN 27E

AliveScienceSSO
NORAD 63603·PAYLOAD·🇨🇳 China

Launched Apr 18, 2025 from Taiyuan Satellite Launch Center

Loading…

Next Passes (next 24 hours)

TLE

FreshSource: Space-Track

Epoch: Sep 14, 2026, 14:45 UTC

1 63603U 25078E   26257.61480634 -.00000008  00000-0  51258-4 0  9998
2 63603  99.6937 263.4296 0001041  90.2672 269.8586 13.57250112 69665

Track SHIYAN 27E in real time with AllMySat

Download on the App Store